sat.trackr.live / text

‹ back to catalog

STARLINK-33808

NORAD 63767 · 2025-089S

PAYLOAD ACTIVE UNKNOWN

§ Identity

Operator
Country
US
Launch date
2025-04-29
Launch site
AFETR
Launch vehicle
Mass (kg)
RCS (m²)

Purposes: comms

External: N2YO · Heavens-Above · Gunter

§ Orbital elements

Epoch: 2026-05-24T23:17:03.514848Z

Period
94.27 min
Inclination
43.0033°
Eccentricity
0.0001346
Mean motion
15.27591378 rev/d
Perigee alt
482.1 km
Apogee alt
483.9 km
Semi-major
6,861.2 km
B*
8.7057e-4
RAAN
334.4457°
Arg perigee
272.1175°
Mean anomaly
87.9523°
Rev number
6,062

§ Raw data

STARLINK-338081 63767U 25089S   26144.97017957  .00023779  00000+0  87057-3 0  99922 63767  43.0033 334.4457 0001346 272.1175  87.9523 15.27591378 60629

JSON: /api/v1/satellites/63767 · /tle

For live sub-satellite position, see the globe view (requires WebGL).

§ Visibility from observer

Set your observer location to see the next 7 days of passes ≥ 10°. The values pass through the URL so the page stays shareable.

No JS? Fill the form by hand. The geolocation button needs JavaScript.